User: anonymous   Login
Location: Unspecified
(0.0000°N, 0.0000°E)
Time: 05:31:18
(UTC+00:00)
Language:

Cosmos 2491 - Orbit

View from above orbital plane
View from above orbital plane
View from above satellite
View from above satellite

Ground track
Ground track

The orbit data is extracted from the following two-line orbital elements,

1 39497U 13076E   17177.72541896 +.00000024 +00000-0 +10000-3 0  9994
2 39497 082.4872 051.7210 0018424 047.3469 312.9160 12.42673305158743
Epoch (UTC): 26 June 2017 17:24:36
Eccentricity: 0.0018424
inclination: 82.4872°
perigee height: 1481 km
apogee height: 1510 km
right ascension of ascending node: 51.7210°
argument of perigee: 47.3469°
revolutions per day: 12.42673305
mean anomaly at epoch: 312.9160°
orbit number at epoch: 15874

The dashed part of the orbit path shows where the satellite is in the earth's shadow,  

DLR